Tracking 28790 objects as of 19-Apr-2024
HD Live streaming from Space Station
objects crossing your sky now

DELTA 1 DEB

Track DELTA 1 DEB now!
10-day predictions


NORAD ID: 42564
Int'l Code: 1972-058JX
Perigee: 807.3 km
Apogee: 920.4 km
Inclination: 99.0 °
Period: 102.1 minutes
Semi major axis: 7234 km
RCS: Unknown
Launch date: July 23, 1972
Source: United States (US)
Launch site: AIR FORCE WESTERN TEST RANGE (AFWTR)

Note: This is SATELLITE DEBRIS
Your satellite tracking list
Your tracking list is empty




NASA's NSSDC Master Catalog

Two Line Element Set (TLE):
1 42564U 72058JX  24106.60070771  .00012975  00000-0  70598-2 0  9999
2 42564  99.0343  44.9889 0078224 249.8971 286.1279 14.10776592530731
Source of the keplerian elements: AFSPC